Change the Weather History Date:

Friday, April 13, 2012

  Actual Average Record
Temperature  
Mean Temperature 63 °F 51 °F  
Max Temperature 77 °F 63 °F 89 °F (2006)
Min Temperature 49 °F 39 °F 10 °F (1881)
Degree Days  
Heating Degree Days 2 15  
Month to date heating degree days 120 218  
Since 1 July heating degree days 4597 5807  
Cooling Degree Days 0 0  
Month to date cooling degree days 19 0  
Year to date cooling degree days 57 1  
Growing Degree Days 12 (Base 50)    
Moisture  
Dew Point 48 °F    
Average Humidity 59    
Maximum Humidity 89    
Minimum Humidity 29    
Precipitation  
Precipitation 0.16 in 0.09 in 1.34 in (2014)
Month to date precipitation 0.67 1.12  
Year to date precipitation 4.14 4.68  
Snow  
Snow 0.00 in 0.00 in - ()
Month to date snowfall 0.0 0.6  
Since 1 July snowfall 20.4 26.0  
Snow Depth 0.00 in    
Sea Level Pressure  
Sea Level Pressure 29.75 in    
Wind  
Wind Speed 16 mph (SSE)    
Max Wind Speed 28 mph    
Max Gust Speed 36 mph    
Visibility 9 miles    
Events Rain , Hail , Thunderstorm    
T = Trace of Precipitation, MM = Missing Value Source: NWS Daily Summary

Daily Weather History Graph

Daily Weather History Graph

Search for Another Location

Airport or City:

Trip Planner

Search our weather history database for the weather conditions in past years. The results will help you decide how hot, cold, wet, or windy it might be!

Date:

Astronomy

Apr. 13, 2012 Rise Set
Actual Time 6:46 AM CDT 8:02 PM CDT
Civil Twilight 6:17 AM CDT 8:30 PM CDT
Nautical Twilight 5:43 AM CDT 9:05 PM CDT
Astronomical Twilight 5:07 AM CDT 9:41 PM CDT
Moon 2:35 AM CDT (4/13) 12:48 PM CDT (4/13)
Length of Visible Light 14h 13m
Length of Day
13h 15m
Waning Gibbous, 47% of the Moon is Illuminated
Apr 13
Waning Gibbous
Apr 21
New
Apr 29
First Quarter
May 5
Full
May 12
Last Quarter

Hourly Weather History & Observations

Time (CDT) Temp. Dew Point Humidity Pressure Visibility Wind Dir Wind Speed Gust Speed Precip Events Conditions
12:17 AM 50.0 °F 46.4 °F 87% 29.87 in 10.0 mi SSE 19.6 mph - 0.02 in Rain , Thunderstorm Light Thunderstorms and Rain
12:27 AM 50.0 °F 48.2 °F 94% 29.87 in 10.0 mi SE 25.3 mph 31.1 mph 0.02 in   Overcast
12:52 AM 50.0 °F 48.0 °F 93% 29.87 in 9.0 mi SE 18.4 mph - N/A Rain Light Rain
1:04 AM 48.2 °F 48.2 °F 100% 29.84 in 3.0 mi SE 24.2 mph 31.1 mph 0.05 in Rain , Thunderstorm Thunderstorms and Rain
1:35 AM 50.0 °F 48.2 °F 94% 29.82 in 10.0 mi SE 24.2 mph 35.7 mph 0.06 in   Overcast
1:52 AM 50.0 °F 48.0 °F 93% 29.82 in 10.0 mi SE 25.3 mph 29.9 mph N/A   Overcast
2:52 AM 51.1 °F 45.0 °F 80% 29.78 in 10.0 mi SE 24.2 mph 33.4 mph N/A   Overcast
3:06 AM 51.8 °F 44.6 °F 76% 29.75 in 10.0 mi SE 25.3 mph - N/A Rain , Thunderstorm Light Thunderstorms and Rain
3:42 AM 50.0 °F 46.4 °F 87% 29.74 in 5.0 mi SE 23.0 mph 29.9 mph 0.02 in Rain , Hail , Thunderstorm Thunderstorms with Hail
3:47 AM 50.0 °F 46.4 °F 87% 29.74 in 4.0 mi SE 26.5 mph 35.7 mph N/A Rain , Thunderstorm Thunderstorms and Rain
3:52 AM 51.1 °F 46.9 °F 86% 29.75 in 7.0 mi SE 23.0 mph 35.7 mph 0.11 in Rain , Thunderstorm Light Thunderstorms and Rain
4:22 AM 51.8 °F 48.2 °F 88% 29.76 in 10.0 mi SSE 21.9 mph 29.9 mph 0.01 in   Overcast
4:52 AM 51.1 °F 46.0 °F 83% 29.73 in 10.0 mi SE 25.3 mph 32.2 mph 0.01 in   Overcast
5:52 AM 52.0 °F 48.0 °F 86% 29.73 in 10.0 mi SE 19.6 mph 29.9 mph N/A   Overcast
6:52 AM 52.0 °F 48.0 °F 86% 29.72 in 10.0 mi SE 17.3 mph - N/A   Overcast
7:16 AM 51.8 °F 48.2 °F 88% 29.71 in 10.0 mi SE 20.7 mph 26.5 mph N/A   Overcast
7:52 AM 52.0 °F 48.0 °F 86% 29.72 in 10.0 mi SE 23.0 mph - N/A   Overcast
8:52 AM 53.1 °F 48.0 °F 83% 29.71 in 10.0 mi SSE 24.2 mph 31.1 mph N/A   Overcast
9:52 AM 55.0 °F 51.1 °F 86% 29.69 in 10.0 mi SE 20.7 mph 29.9 mph N/A   Overcast
10:52 AM 59.0 °F 53.1 °F 81% 29.70 in 10.0 mi SSE 23.0 mph 31.1 mph N/A   Mostly Cloudy
10:59 AM 60.8 °F 53.6 °F 77% 29.69 in 10.0 mi SSE 23.0 mph 31.1 mph N/A   Mostly Cloudy
11:52 AM 66.0 °F 55.9 °F 70% 29.69 in 10.0 mi SSE 26.5 mph 33.4 mph N/A   Mostly Cloudy
12:52 PM 68.0 °F 55.9 °F 65% 29.69 in 10.0 mi South 16.1 mph 27.6 mph N/A   Mostly Cloudy
1:52 PM 72.0 °F 44.1 °F 37% 29.70 in 10.0 mi SW 17.3 mph 29.9 mph N/A   Scattered Clouds
2:52 PM 75.2 °F 44.6 °F 34% 29.70 in 10.0 mi WSW 18.4 mph 26.5 mph N/A   Scattered Clouds
3:52 PM 75.9 °F 43.0 °F 31% 29.68 in 10.0 mi SW 17.3 mph 31.1 mph N/A   Mostly Cloudy
4:52 PM 77.0 °F 43.0 °F 30% 29.69 in 10.0 mi SW 24.2 mph 28.8 mph N/A   Scattered Clouds
5:52 PM 75.0 °F 43.0 °F 32% 29.70 in 10.0 mi WSW 10.4 mph - N/A   Mostly Cloudy
6:52 PM 73.0 °F 45.0 °F 37% 29.70 in 10.0 mi WSW 10.4 mph - N/A   Mostly Cloudy
7:52 PM 69.1 °F 48.0 °F 47% 29.74 in 10.0 mi WNW 8.1 mph - N/A   Mostly Cloudy
8:52 PM 64.0 °F 46.9 °F 54% 29.77 in 10.0 mi Calm Calm - N/A   Mostly Cloudy
9:52 PM 59.0 °F 48.9 °F 69% 29.81 in 10.0 mi Calm Calm - N/A   Mostly Cloudy
10:52 PM 54.0 °F 48.0 °F 80% 29.82 in 10.0 mi SSE 5.8 mph - N/A   Partly Cloudy
11:52 PM 54.0 °F 46.9 °F 77% 29.81 in 10.0 mi Calm Calm - N/A   Clear